Location: Bailleul
(50.3375°N, 2.8513°E)
Time: 20:22:15
(UTC+00:00)

Tiros N - Visible Passes

Search period start: 21 January 2022 00:00
Search period end: 31 January 2022 00:00
Orbit: 823 x 838 km, 98.7° (Epoch: 21 January)

Date Brightness Start Highest point End Pass type
(mag) Time Alt. Az. Time Alt. Az. Time Alt. Az.
21 Jan 7.2 18:30:28 12° NNE 18:30:28 12° NNE 18:31:01 10° NNE visible
21 Jan 7.5 20:12:03 14° NNW 20:12:03 14° NNW 20:12:47 10° NNW visible
22 Jan 7.3 18:12:32 10° NNE 18:12:32 10° NNE 18:12:35 10° NNE visible
22 Jan 7.3 19:54:07 16° N 19:54:07 16° N 19:55:06 10° N visible
23 Jan 7.2 19:36:11 16° N 19:36:11 16° N 19:37:22 10° N visible
24 Jan 7.1 19:18:15 16° N 19:18:15 16° N 19:19:33 10° N visible
24 Jan 7.9 20:59:49 12° NNW 20:59:49 12° NNW 21:00:13 10° NNW visible
25 Jan 7.0 19:00:18 16° NNE 19:00:18 16° NNE 19:01:40 10° N visible
25 Jan 7.6 20:41:53 15° NNW 20:41:53 15° NNW 20:42:42 10° NNW visible
26 Jan 7.0 18:42:22 15° NNE 18:42:22 15° NNE 18:43:41 10° NNE visible
26 Jan 7.4 20:23:56 17° NNW 20:23:56 17° NNW 20:25:06 10° NNW visible
27 Jan 7.1 18:24:25 13° NNE 18:24:25 13° NNE 18:25:31 10° NNE visible
27 Jan 7.2 20:05:59 19° N 20:05:59 19° N 20:07:27 10° N visible
28 Jan 7.2 18:06:28 11° NE 18:06:28 11° NE 18:06:52 10° NNE visible
28 Jan 7.0 19:48:03 20° N 19:48:03 20° N 19:49:45 10° N visible
28 Jan 8.1 21:29:37 11° NW 21:29:37 11° NW 21:29:45 10° NW visible
29 Jan 6.9 19:30:06 21° N 19:30:06 21° N 19:31:59 10° N visible
29 Jan 7.8 21:11:40 14° NNW 21:11:40 14° NNW 21:12:24 10° NNW visible
30 Jan 6.8 19:12:09 20° NNE 19:12:09 20° NNE 19:14:10 10° N visible
30 Jan 7.5 20:53:43 17° NNW 20:53:43 17° NNW 20:54:56 10° NNW visible
